Hourly Data Report for September 13, 2017

All times are specified in Local Standard Time (LST). Add 1 hour to adjust for Daylight Saving Time where and when it is observed.

PENTICTON A
BRITISH COLUMBIA

49°27'45.000" N
119°36'08.000" W
344.40 m
1126146
71889
YYF

Download Data

Hourly Data (September 2017)
Hourly Data Report for September 13, 2017
Temp Definition
°C
Dew Point Temp Definition
°C
Rel Hum Definition
%
Wind Dir Definition
10's deg

Wind Spd Definition
km/h
Visibility Definition
km
Stn Press Definition
kPa
Hmdx Definition


Wind Chill Definition


Weather Definition


TIME
00:00 Legend Double Dagger 19.8 0.3 27 30 15 24.1 97.06     LegendNANA
01:00 Legend Double Dagger 18.4 4.3 39 34 15 24.1 97.09     Mostly Cloudy
02:00 Legend Double Dagger 17.5 5.5 45 34 16 24.1 97.13     LegendNANA
03:00 Legend Double Dagger 15.0 5.5 53 2 9 24.1 97.17     LegendNANA
04:00 Legend Double Dagger 14.7 4.9 52 36 10 24.1 97.22     Mostly Cloudy
05:00 Legend Double Dagger 14.4 4.9 53 1 10 24.1 97.25     LegendNANA
06:00 Legend Double Dagger 14.1 3.8 50 35 20 24.1 97.30     LegendNANA
07:00 Legend Double Dagger 15.4 2.7 42 34 23 24.1 97.36     Mostly Cloudy
08:00 Legend Double Dagger 17.5 2.8 37 1 26 24.1 97.36     LegendNANA
09:00 Legend Double Dagger 18.5 2.6 35 1 25 24.1 97.37     LegendNANA
10:00 Legend Double Dagger 19.4 3.1 34 35 27 24.1 97.35     Mainly Clear
11:00 Legend Double Dagger 20.6 1.8 28 36 27 24.1 97.29     LegendNANA
12:00 Legend Double Dagger 21.1 1.6 27 1 28 24.1 97.23     LegendNANA
13:00 Legend Double Dagger 22.0 0.5 24 36 34 24.1 97.19     Mainly Clear
14:00 Legend Double Dagger 22.2 0.0 23 35 30 24.1 97.16     LegendNANA
15:00 Legend Double Dagger 22.4 -0.8 21 36 28 24.1 97.13     LegendNANA
16:00 Legend Double Dagger 21.8 -0.6 22 35 27 24.1 97.14     Mainly Clear
17:00 Legend Double Dagger 20.7 -2.4 21 34 27 24.1 97.15     LegendNANA
18:00 Legend Double Dagger 18.9 -3.1 22 34 18 24.1 97.19     LegendNANA
19:00 Legend Double Dagger 18.6 -3.1 23 33 27 24.1 97.25     Clear
20:00 Legend Double Dagger 16.2 -2.3 28 34 14 24.1 97.32     LegendNANA
21:00 Legend Double Dagger 16.0 -0.5 32 32 11 24.1 97.34     LegendNANA
22:00 Legend Double Dagger 15.3 0.6 37 34 19 24.1 97.39     Clear
23:00 Legend Double Dagger 13.4 1.5 44 4 9 24.1 97.42     LegendNANA

Notes on Data Quality.

Legend

  • E = Estimated
  • M = Missing
  • NA = Not Available
  • ‡ = Partner data that is not subject to review by the National Climate Archives
Date modified: